Year,Month,Day,Hour,Minute,Value (Times are PST for temperature in C)
2013,05,25,00,00,10.10
2013,05,25,00,01,10.10
2013,05,25,00,02,10.10
2013,05,25,00,03,10.10
2013,05,25,00,04,10.10
2013,05,25,00,05,10.10
2013,05,25,00,06,10.10
2013,05,25,00,07,10.10
2013,05,25,00,08,10.10
2013,05,25,00,09,10.10
2013,05,25,00,10,10.20
2013,05,25,00,11,10.20
2013,05,25,00,12,10.20
2013,05,25,00,13,10.20
2013,05,25,00,14,10.10
2013,05,25,00,15,10.10
2013,05,25,00,16,10.10
2013,05,25,00,17,10.10
2013,05,25,00,18,10.10
2013,05,25,00,19,10.10
2013,05,25,00,20,10.10
2013,05,25,00,21,10.10
2013,05,25,00,22,10.10
2013,05,25,00,23,10.10
2013,05,25,00,24,10.10
2013,05,25,00,25,10.10
2013,05,25,00,26,10.10
2013,05,25,00,27,10.10
2013,05,25,00,28,10.10
2013,05,25,00,29,10.10
2013,05,25,00,30,10.10
2013,05,25,00,31,10.10
2013,05,25,00,32,10.10
2013,05,25,00,33,10.10
2013,05,25,00,34,10.10
2013,05,25,00,35,10.10
2013,05,25,00,36,10.10
2013,05,25,00,37,10.10
2013,05,25,00,38,10.10
2013,05,25,00,39,10.10
2013,05,25,00,40,10.10
2013,05,25,00,41,10.10
2013,05,25,00,42,10.10
2013,05,25,00,43,10.10
2013,05,25,00,44,10.10
2013,05,25,00,45,9.90
2013,05,25,00,46,9.90
2013,05,25,00,47,9.90
2013,05,25,00,48,9.90
2013,05,25,00,49,9.90
2013,05,25,00,50,9.90
2013,05,25,00,51,9.90
2013,05,25,00,52,9.80
2013,05,25,00,53,9.80
2013,05,25,00,54,9.80
2013,05,25,00,55,9.80
2013,05,25,00,56,9.70
2013,05,25,00,57,9.70
2013,05,25,00,58,9.70
2013,05,25,00,59,9.70
2013,05,25,01,00,9.70
2013,05,25,01,01,9.70
2013,05,25,01,02,9.70
2013,05,25,01,03,9.70
2013,05,25,01,04,9.70
2013,05,25,01,05,9.70
2013,05,25,01,06,9.70
2013,05,25,01,07,9.70
2013,05,25,01,08,9.70
2013,05,25,01,09,9.70
2013,05,25,01,10,9.60
2013,05,25,01,11,9.60
2013,05,25,01,12,9.60
2013,05,25,01,13,9.60
2013,05,25,01,14,9.60
2013,05,25,01,15,9.60
2013,05,25,01,16,9.60
2013,05,25,01,17,9.60
2013,05,25,01,18,9.60
2013,05,25,01,19,9.60
2013,05,25,01,20,9.60
2013,05,25,01,21,9.50
2013,05,25,01,22,9.50
2013,05,25,01,23,9.50
2013,05,25,01,24,9.50
2013,05,25,01,25,9.40
2013,05,25,01,26,9.40
2013,05,25,01,27,9.30
2013,05,25,01,28,9.30
2013,05,25,01,29,9.30
2013,05,25,01,30,9.20
2013,05,25,01,31,9.20
2013,05,25,01,32,9.20
2013,05,25,01,33,9.20
2013,05,25,01,34,9.10
2013,05,25,01,35,9.00
2013,05,25,01,36,9.00
2013,05,25,01,37,8.90
2013,05,25,01,38,8.80
2013,05,25,01,39,8.80
2013,05,25,01,40,8.70
2013,05,25,01,41,8.70
2013,05,25,01,42,8.70
2013,05,25,01,43,8.60
2013,05,25,01,44,8.50
2013,05,25,01,45,8.50
2013,05,25,01,46,8.50
2013,05,25,01,47,8.50
2013,05,25,01,48,8.50
2013,05,25,01,49,8.40
2013,05,25,01,50,8.40
2013,05,25,01,51,8.40
2013,05,25,01,52,8.40
2013,05,25,01,53,8.40
2013,05,25,01,54,8.40
2013,05,25,01,55,8.40
2013,05,25,01,56,8.40
2013,05,25,01,57,8.40
2013,05,25,01,58,8.40
2013,05,25,01,59,8.50
2013,05,25,02,00,8.50
2013,05,25,02,01,8.50
2013,05,25,02,02,8.60
2013,05,25,02,03,8.60
2013,05,25,02,04,8.60
2013,05,25,02,05,8.60
2013,05,25,02,06,8.60
2013,05,25,02,07,8.60
2013,05,25,02,08,8.60
2013,05,25,02,09,8.60
2013,05,25,02,10,8.60
2013,05,25,02,11,8.60
2013,05,25,02,12,8.60
2013,05,25,02,13,8.60
2013,05,25,02,14,8.60
2013,05,25,02,15,8.60
2013,05,25,02,16,8.60
2013,05,25,02,17,8.60
2013,05,25,02,18,8.50
2013,05,25,02,19,8.50
2013,05,25,02,20,8.50
2013,05,25,02,21,8.50
2013,05,25,02,22,8.40
2013,05,25,02,23,8.40
2013,05,25,02,24,8.40
2013,05,25,02,25,8.40
2013,05,25,02,26,8.30
2013,05,25,02,27,8.30
2013,05,25,02,28,8.20
2013,05,25,02,29,8.20
2013,05,25,02,30,8.20
2013,05,25,02,31,8.20
2013,05,25,02,32,8.20
2013,05,25,02,33,8.20
2013,05,25,02,34,8.30
2013,05,25,02,35,8.30
2013,05,25,02,36,8.30
2013,05,25,02,37,8.20
2013,05,25,02,38,8.20
2013,05,25,02,39,8.20
2013,05,25,02,40,8.20
2013,05,25,02,41,8.20
2013,05,25,02,42,8.20
2013,05,25,02,43,8.20
2013,05,25,02,44,8.20
2013,05,25,02,45,8.20
2013,05,25,02,46,8.20
2013,05,25,02,47,8.20
2013,05,25,02,48,8.10
2013,05,25,02,49,8.10
2013,05,25,02,50,8.10
2013,05,25,02,51,8.10
2013,05,25,02,52,8.10
2013,05,25,02,53,8.00
2013,05,25,02,54,8.00
2013,05,25,02,55,8.00
2013,05,25,02,56,7.90
2013,05,25,02,57,7.90
2013,05,25,02,58,7.90
2013,05,25,02,59,7.80
2013,05,25,03,00,7.80
2013,05,25,03,01,7.80
2013,05,25,03,02,7.80
2013,05,25,03,03,7.80
2013,05,25,03,04,7.70
2013,05,25,03,05,7.70
2013,05,25,03,06,7.60
2013,05,25,03,07,7.60
2013,05,25,03,08,7.60
2013,05,25,03,09,7.60
2013,05,25,03,10,7.60
2013,05,25,03,11,7.60
2013,05,25,03,12,7.50
2013,05,25,03,13,7.40
2013,05,25,03,14,7.40
2013,05,25,03,15,7.40
2013,05,25,03,16,7.30
2013,05,25,03,17,7.30
2013,05,25,03,18,7.30
2013,05,25,03,19,7.30
2013,05,25,03,20,7.30
2013,05,25,03,21,7.30
2013,05,25,03,22,7.30
2013,05,25,03,23,7.20
2013,05,25,03,24,7.20
2013,05,25,03,25,7.20
2013,05,25,03,26,7.20
2013,05,25,03,27,7.10
2013,05,25,03,28,7.10
2013,05,25,03,29,7.10
2013,05,25,03,30,7.10
2013,05,25,03,31,7.00
2013,05,25,03,32,7.00
2013,05,25,03,33,7.00
2013,05,25,03,34,7.00
2013,05,25,03,35,7.00
2013,05,25,03,36,6.90
2013,05,25,03,37,6.90
2013,05,25,03,38,6.90
2013,05,25,03,39,6.90
2013,05,25,03,40,6.90
2013,05,25,03,41,6.80
2013,05,25,03,42,6.80
2013,05,25,03,43,6.80
2013,05,25,03,44,6.80
2013,05,25,03,45,6.80
2013,05,25,03,46,6.70
2013,05,25,03,47,6.70
2013,05,25,03,48,6.70
2013,05,25,03,49,6.70
2013,05,25,03,50,6.60
2013,05,25,03,51,6.60
2013,05,25,03,52,6.60
2013,05,25,03,53,6.60
2013,05,25,03,54,6.60
2013,05,25,03,55,6.60
2013,05,25,03,56,6.60
2013,05,25,03,57,6.60
2013,05,25,03,58,6.60
2013,05,25,03,59,6.40
2013,05,25,04,00,6.40
2013,05,25,04,01,6.40
2013,05,25,04,02,6.40
2013,05,25,04,03,6.40
2013,05,25,04,04,6.40
2013,05,25,04,05,6.40
2013,05,25,04,06,6.40
2013,05,25,04,07,6.40
2013,05,25,04,08,6.40
2013,05,25,04,09,6.40
2013,05,25,04,10,6.40
2013,05,25,04,11,6.30
2013,05,25,04,12,6.30
2013,05,25,04,13,6.30
2013,05,25,04,14,6.30
2013,05,25,04,15,6.30
2013,05,25,04,16,6.30
2013,05,25,04,17,6.30
2013,05,25,04,18,6.30
2013,05,25,04,19,6.30
2013,05,25,04,20,6.30
2013,05,25,04,21,6.30
2013,05,25,04,22,6.30
2013,05,25,04,23,6.30
2013,05,25,04,24,6.30
2013,05,25,04,25,6.30
2013,05,25,04,26,6.30
2013,05,25,04,27,6.30
2013,05,25,04,28,6.30
2013,05,25,05,52,6.00
2013,05,25,05,53,6.00
2013,05,25,05,54,6.00
2013,05,25,05,55,5.90
2013,05,25,05,56,5.90
2013,05,25,05,57,5.90
2013,05,25,05,58,5.90
2013,05,25,05,59,5.90
2013,05,25,06,00,5.90
2013,05,25,06,01,5.90
2013,05,25,06,02,5.90
2013,05,25,06,03,5.90
2013,05,25,06,04,5.90
2013,05,25,06,05,6.00
2013,05,25,06,06,6.00
2013,05,25,06,07,6.00
2013,05,25,06,08,6.00
2013,05,25,06,09,6.10
2013,05,25,06,10,6.10
2013,05,25,06,11,6.10
2013,05,25,06,12,6.10
2013,05,25,06,13,6.10
2013,05,25,06,14,6.10
2013,05,25,06,15,6.00
2013,05,25,06,16,6.00
2013,05,25,06,17,6.00
2013,05,25,06,18,6.00
2013,05,25,06,19,6.10
2013,05,25,06,20,6.10
2013,05,25,06,21,6.10
2013,05,25,06,22,6.10
2013,05,25,06,23,6.20
2013,05,25,06,24,6.20
2013,05,25,06,25,6.20
2013,05,25,06,26,6.20
2013,05,25,06,27,6.20
2013,05,25,06,28,6.20
2013,05,25,06,29,6.30
2013,05,25,06,30,6.30
2013,05,25,06,31,6.30
2013,05,25,06,32,6.30
2013,05,25,06,33,6.40
2013,05,25,06,34,6.40
2013,05,25,06,35,6.40
2013,05,25,06,36,6.40
2013,05,25,06,37,6.40
2013,05,25,06,38,6.40
2013,05,25,06,39,6.40
2013,05,25,06,40,6.40
2013,05,25,06,41,6.40
2013,05,25,06,42,6.40
2013,05,25,06,43,6.40
2013,05,25,06,44,6.40
2013,05,25,06,45,6.60
2013,05,25,06,46,6.60
2013,05,25,06,47,6.60
2013,05,25,06,48,6.60
2013,05,25,06,49,6.60
2013,05,25,06,50,6.60
2013,05,25,06,51,6.70
2013,05,25,06,52,6.70
2013,05,25,06,53,6.80
2013,05,25,06,54,6.80
2013,05,25,06,55,6.90
2013,05,25,06,56,7.00
2013,05,25,06,57,7.10
2013,05,25,06,58,7.10
2013,05,25,06,59,7.20
2013,05,25,07,00,7.20
2013,05,25,07,01,7.20
2013,05,25,07,02,7.20
2013,05,25,07,03,7.20
2013,05,25,07,04,7.20
2013,05,25,07,05,7.30
2013,05,25,07,06,7.30
2013,05,25,07,07,7.30
2013,05,25,07,08,7.30
2013,05,25,07,09,7.30
2013,05,25,07,10,7.30
2013,05,25,07,11,7.30
2013,05,25,07,12,7.40
2013,05,25,07,13,7.40
2013,05,25,07,14,7.40
2013,05,25,07,15,7.50
2013,05,25,07,16,7.50
2013,05,25,07,17,7.60
2013,05,25,07,18,7.70
2013,05,25,07,19,7.70
2013,05,25,07,20,7.80
2013,05,25,07,21,7.90
2013,05,25,07,22,8.00
2013,05,25,07,23,8.10
2013,05,25,07,24,8.20
2013,05,25,07,25,8.30
2013,05,25,07,26,8.40
2013,05,25,07,27,8.50
2013,05,25,07,28,8.70
2013,05,25,07,29,8.70
2013,05,25,07,30,8.70
2013,05,25,07,31,8.70
2013,05,25,07,32,8.70
2013,05,25,07,33,8.70
2013,05,25,07,34,8.70
2013,05,25,07,35,8.70
2013,05,25,07,36,8.70
2013,05,25,07,37,8.70
2013,05,25,07,38,8.70
2013,05,25,07,39,8.60
2013,05,25,07,40,8.60
2013,05,25,07,41,8.50
2013,05,25,07,42,8.40
2013,05,25,07,43,8.30
2013,05,25,07,44,8.20
2013,05,25,07,45,8.20
2013,05,25,07,46,8.20
2013,05,25,07,47,8.10
2013,05,25,07,48,8.10
2013,05,25,07,49,8.10
2013,05,25,07,50,8.00
2013,05,25,07,51,8.00
2013,05,25,07,52,8.00
2013,05,25,07,53,8.00
2013,05,25,07,54,8.00
2013,05,25,07,55,8.00
2013,05,25,07,56,8.00
2013,05,25,07,57,8.10
2013,05,25,07,58,8.10
2013,05,25,07,59,8.10
2013,05,25,08,00,8.20
2013,05,25,08,01,8.20
2013,05,25,08,02,8.20
2013,05,25,08,03,8.20
2013,05,25,08,04,8.30
2013,05,25,08,05,8.30
2013,05,25,08,06,8.30
2013,05,25,08,07,8.40
2013,05,25,08,08,8.40
2013,05,25,08,09,8.50
2013,05,25,08,10,8.50
2013,05,25,08,11,8.50
2013,05,25,08,12,8.60
2013,05,25,08,13,8.60
2013,05,25,08,14,8.70
2013,05,25,08,15,8.70
2013,05,25,08,16,8.70
2013,05,25,08,17,8.70
2013,05,25,08,18,8.70
2013,05,25,08,19,8.80
2013,05,25,08,20,8.90
2013,05,25,08,21,8.90
2013,05,25,08,22,8.90
2013,05,25,08,23,8.90
2013,05,25,08,24,9.00
2013,05,25,08,25,9.00
2013,05,25,08,26,9.00
2013,05,25,08,27,9.10
2013,05,25,08,28,9.20
2013,05,25,08,29,9.20
2013,05,25,08,30,9.20
2013,05,25,08,31,9.20
2013,05,25,08,32,9.30
2013,05,25,08,33,9.40
2013,05,25,08,34,9.40
2013,05,25,08,35,9.40
2013,05,25,08,36,9.40
2013,05,25,08,37,9.40
2013,05,25,08,38,9.50
2013,05,25,08,39,9.50
2013,05,25,08,40,9.60
2013,05,25,08,41,9.60
2013,05,25,08,42,9.60
2013,05,25,08,43,9.70
2013,05,25,08,44,9.70
2013,05,25,08,45,9.70
2013,05,25,08,46,9.70
2013,05,25,08,47,9.70
2013,05,25,08,48,9.70
2013,05,25,08,49,9.70
2013,05,25,08,50,9.80
2013,05,25,08,51,9.90
2013,05,25,08,52,9.90
2013,05,25,08,53,9.90
2013,05,25,08,54,9.90
2013,05,25,08,55,9.90
2013,05,25,08,56,9.90
2013,05,25,08,57,10.10
2013,05,25,08,58,10.10
2013,05,25,08,59,10.10
2013,05,25,09,00,10.10
2013,05,25,09,01,10.20
2013,05,25,09,02,10.10
2013,05,25,09,03,10.10
2013,05,25,09,04,10.10
2013,05,25,09,05,10.10
2013,05,25,09,06,10.10
2013,05,25,09,07,10.10
2013,05,25,09,08,10.20
2013,05,25,09,09,10.20
2013,05,25,09,10,10.20
2013,05,25,09,11,10.30
2013,05,25,09,12,10.30
2013,05,25,09,13,10.30
2013,05,25,09,14,10.30
2013,05,25,09,15,10.30
2013,05,25,09,16,10.40
2013,05,25,09,17,10.40
2013,05,25,09,18,10.40
2013,05,25,09,19,10.40
2013,05,25,09,20,10.60
2013,05,25,09,21,10.60
2013,05,25,09,22,10.40
2013,05,25,09,23,10.60
2013,05,25,09,24,10.60
2013,05,25,09,25,10.60
2013,05,25,09,26,10.70
2013,05,25,09,27,10.70
2013,05,25,09,28,10.80
2013,05,25,09,29,10.80
2013,05,25,09,30,10.80
2013,05,25,09,31,10.90
2013,05,25,09,32,10.90
2013,05,25,09,33,10.90
2013,05,25,09,34,10.90
2013,05,25,09,35,10.90
2013,05,25,09,36,10.80
2013,05,25,09,37,10.70
2013,05,25,09,38,10.60
2013,05,25,09,39,10.60
2013,05,25,09,40,10.70
2013,05,25,09,41,10.70
2013,05,25,09,42,10.80
2013,05,25,09,43,10.90
2013,05,25,09,44,10.90
2013,05,25,09,45,11.10
2013,05,25,09,46,11.10
2013,05,25,09,47,11.10
2013,05,25,09,48,11.20
2013,05,25,09,49,11.30
2013,05,25,09,50,11.40
2013,05,25,09,51,11.40
2013,05,25,09,52,11.40
2013,05,25,09,53,11.40
2013,05,25,09,54,11.60
2013,05,25,09,55,11.60
2013,05,25,09,56,11.60
2013,05,25,09,57,11.60
2013,05,25,09,58,11.60
2013,05,25,09,59,11.60
2013,05,25,10,00,11.60
2013,05,25,10,01,11.60
2013,05,25,10,02,11.60
2013,05,25,10,03,11.60
2013,05,25,10,04,11.60
2013,05,25,10,05,11.60
2013,05,25,10,06,11.60
2013,05,25,10,07,11.60
2013,05,25,10,08,11.60
2013,05,25,10,09,11.60
2013,05,25,10,10,11.60
2013,05,25,10,11,11.60
2013,05,25,10,12,11.60
2013,05,25,10,13,11.70
2013,05,25,10,14,11.70
2013,05,25,10,15,11.70
2013,05,25,10,16,11.80
2013,05,25,10,17,11.80
2013,05,25,10,18,11.80
2013,05,25,10,19,11.70
2013,05,25,10,20,11.80
2013,05,25,10,21,11.70
2013,05,25,10,22,11.70
2013,05,25,10,23,11.60
2013,05,25,10,24,11.60
2013,05,25,10,25,11.60
2013,05,25,10,26,11.60
2013,05,25,10,27,11.60
2013,05,25,10,28,11.70
2013,05,25,10,29,11.70
2013,05,25,10,30,11.60
2013,05,25,10,31,11.60
2013,05,25,10,32,11.60
2013,05,25,10,33,11.40
2013,05,25,10,34,11.40
2013,05,25,10,35,11.40
2013,05,25,10,36,11.30
2013,05,25,10,37,11.30
2013,05,25,10,38,11.20
2013,05,25,10,39,11.20
2013,05,25,10,40,11.20
2013,05,25,10,41,11.20
2013,05,25,10,42,11.20
2013,05,25,10,43,11.20
2013,05,25,10,44,11.20
2013,05,25,10,45,11.20
2013,05,25,10,46,11.20
2013,05,25,10,47,11.20
2013,05,25,10,48,11.20
2013,05,25,10,49,11.20
2013,05,25,10,50,11.20
2013,05,25,10,51,11.10
2013,05,25,10,52,11.10
2013,05,25,10,53,11.10
2013,05,25,10,54,11.10
2013,05,25,10,55,11.20
2013,05,25,10,56,11.20
2013,05,25,10,57,11.20
2013,05,25,10,58,11.20
2013,05,25,10,59,11.20
2013,05,25,11,00,11.20
2013,05,25,11,01,11.30
2013,05,25,11,02,11.40
2013,05,25,11,03,11.40
2013,05,25,11,04,11.40
2013,05,25,11,05,11.40
2013,05,25,11,06,11.40
2013,05,25,11,07,11.40
2013,05,25,11,08,11.40
2013,05,25,11,09,11.40
2013,05,25,11,10,11.40
2013,05,25,11,11,11.60
2013,05,25,11,12,11.60
2013,05,25,11,13,11.60
2013,05,25,11,14,11.60
2013,05,25,11,15,11.60
2013,05,25,11,16,11.70
2013,05,25,11,17,11.70
2013,05,25,11,18,11.80
2013,05,25,11,19,11.80
2013,05,25,11,20,11.80
2013,05,25,11,21,11.80
2013,05,25,11,22,11.90
2013,05,25,11,23,11.90
2013,05,25,11,24,11.90
2013,05,25,11,25,11.90
2013,05,25,11,26,11.90
2013,05,25,11,27,11.90
2013,05,25,11,28,11.80
2013,05,25,11,29,11.80
2013,05,25,11,30,11.80
2013,05,25,11,31,11.80
2013,05,25,11,32,11.80
2013,05,25,11,33,11.80
2013,05,25,11,34,11.80
2013,05,25,11,35,11.80
2013,05,25,11,36,11.80
2013,05,25,11,37,11.70
2013,05,25,11,38,11.70
2013,05,25,11,39,11.60
2013,05,25,11,40,11.60
2013,05,25,11,41,11.60
2013,05,25,11,42,11.60
2013,05,25,11,43,11.60
2013,05,25,11,44,11.60
2013,05,25,11,45,11.60
2013,05,25,11,46,11.60
2013,05,25,11,47,11.60
2013,05,25,11,48,11.40
2013,05,25,11,49,11.40
2013,05,25,11,50,11.60
2013,05,25,11,51,11.60
2013,05,25,11,52,11.60
2013,05,25,11,53,11.60
2013,05,25,11,54,11.60
2013,05,25,11,55,11.60
2013,05,25,11,56,11.60
2013,05,25,11,57,11.70
2013,05,25,11,58,11.70
2013,05,25,11,59,11.70
2013,05,25,12,00,11.70
2013,05,25,12,01,11.70
2013,05,25,12,02,11.70
2013,05,25,12,03,11.70
2013,05,25,12,04,11.70
2013,05,25,12,05,11.70
2013,05,25,12,06,11.70
2013,05,25,12,07,11.70
2013,05,25,12,08,11.70
2013,05,25,12,09,11.80
2013,05,25,12,10,11.80
2013,05,25,12,11,11.80
2013,05,25,12,12,11.80
2013,05,25,12,13,11.80
2013,05,25,12,14,11.80
2013,05,25,12,15,11.90
2013,05,25,12,16,11.90
2013,05,25,12,17,11.80
2013,05,25,12,18,11.80
2013,05,25,12,19,11.80
2013,05,25,12,20,11.80
2013,05,25,12,21,11.80
2013,05,25,12,22,11.80
2013,05,25,12,23,11.80
2013,05,25,12,24,11.80
2013,05,25,12,25,11.70
2013,05,25,12,26,11.70
2013,05,25,12,27,11.60
2013,05,25,12,28,11.60
2013,05,25,12,29,11.40
2013,05,25,12,30,11.40
2013,05,25,12,31,11.40
2013,05,25,12,32,11.40
2013,05,25,12,33,11.40
2013,05,25,12,34,11.40
2013,05,25,12,35,11.30
2013,05,25,12,36,11.30
2013,05,25,12,37,11.20
2013,05,25,12,38,11.20
2013,05,25,12,39,11.20
2013,05,25,12,40,11.20
2013,05,25,12,41,11.20
2013,05,25,12,42,11.30
2013,05,25,12,43,11.30
2013,05,25,12,44,11.30
2013,05,25,12,45,11.30
2013,05,25,12,46,11.40
2013,05,25,12,47,11.40
2013,05,25,12,48,11.60
2013,05,25,12,49,11.60
2013,05,25,12,50,11.80
2013,05,25,12,51,11.80
2013,05,25,12,52,12.00
2013,05,25,12,53,12.20
2013,05,25,12,54,12.30
2013,05,25,12,55,12.30
2013,05,25,12,56,12.50
2013,05,25,12,57,12.60
2013,05,25,12,58,12.70
2013,05,25,12,59,12.80
2013,05,25,13,00,12.90
2013,05,25,13,01,13.00
2013,05,25,13,02,13.20
2013,05,25,13,03,13.40
2013,05,25,13,04,13.70
2013,05,25,13,05,13.90
2013,05,25,13,06,14.20
2013,05,25,13,07,14.50
2013,05,25,13,08,14.80
2013,05,25,13,09,14.80
2013,05,25,13,10,14.90
2013,05,25,13,11,14.90
2013,05,25,13,12,15.00
2013,05,25,13,13,15.10
2013,05,25,13,14,15.10
2013,05,25,13,15,15.10
2013,05,25,13,16,15.10
2013,05,25,13,17,15.20
2013,05,25,13,18,15.20
2013,05,25,13,19,15.20
2013,05,25,13,20,15.20
2013,05,25,13,21,15.00
2013,05,25,13,22,14.90
2013,05,25,13,23,14.80
2013,05,25,13,24,14.80
2013,05,25,13,25,14.70
2013,05,25,13,26,14.60
2013,05,25,13,27,14.60
2013,05,25,13,28,14.70
2013,05,25,13,29,14.80
2013,05,25,13,30,14.80
2013,05,25,13,31,14.80
2013,05,25,13,32,14.80
2013,05,25,13,33,14.80
2013,05,25,13,34,14.80
2013,05,25,13,35,14.90
2013,05,25,13,36,14.90
2013,05,25,13,37,15.10
2013,05,25,13,38,15.20
2013,05,25,13,39,15.30
2013,05,25,13,40,15.40
2013,05,25,13,41,15.40
2013,05,25,13,42,15.50
2013,05,25,13,43,15.50
2013,05,25,13,44,15.60
2013,05,25,13,45,15.60
2013,05,25,13,46,15.50
2013,05,25,13,47,15.50
2013,05,25,13,48,15.50
2013,05,25,13,49,15.50
2013,05,25,13,50,15.40
2013,05,25,13,51,15.30
2013,05,25,13,52,15.30
2013,05,25,13,53,15.30
2013,05,25,13,54,15.20
2013,05,25,13,55,15.20
2013,05,25,13,56,15.20
2013,05,25,13,57,15.30
2013,05,25,13,58,15.30
2013,05,25,13,59,15.30
2013,05,25,14,00,15.30
2013,05,25,14,01,15.30
2013,05,25,14,02,15.30
2013,05,25,14,03,15.30
2013,05,25,14,04,15.30
2013,05,25,14,05,15.40
2013,05,25,14,06,15.40
2013,05,25,14,07,15.40
2013,05,25,14,08,15.50
2013,05,25,14,09,15.50
2013,05,25,14,10,15.50
2013,05,25,14,11,15.60
2013,05,25,14,12,15.60
2013,05,25,14,13,15.60
2013,05,25,14,14,15.70
2013,05,25,14,15,15.70
2013,05,25,14,16,15.70
2013,05,25,14,17,15.70
2013,05,25,14,18,15.70
2013,05,25,14,19,15.60
2013,05,25,14,20,15.50
2013,05,25,14,21,15.50
2013,05,25,14,22,15.40
2013,05,25,14,23,15.30
2013,05,25,14,24,15.30
2013,05,25,14,25,15.30
2013,05,25,14,26,15.30
2013,05,25,14,27,15.30
2013,05,25,14,28,15.30
2013,05,25,14,29,15.30
2013,05,25,14,30,15.40
2013,05,25,14,31,15.40
2013,05,25,14,32,15.50
2013,05,25,14,33,15.50
2013,05,25,14,34,15.60
2013,05,25,14,35,15.60
2013,05,25,14,36,15.60
2013,05,25,14,37,15.70
2013,05,25,14,38,15.70
2013,05,25,14,39,15.80
2013,05,25,14,40,15.90
2013,05,25,14,41,16.10
2013,05,25,14,42,16.20
2013,05,25,14,43,16.30
2013,05,25,14,44,16.40
2013,05,25,14,45,16.40
2013,05,25,14,46,16.30
2013,05,25,14,47,16.30
2013,05,25,14,48,16.30
2013,05,25,14,49,16.30
2013,05,25,14,50,16.20
2013,05,25,14,51,16.20
2013,05,25,14,52,16.20
2013,05,25,14,53,16.20
2013,05,25,14,54,16.30
2013,05,25,14,55,16.30
2013,05,25,14,56,16.30
2013,05,25,14,57,16.20
2013,05,25,14,58,16.20
2013,05,25,14,59,16.20
2013,05,25,15,00,16.20
2013,05,25,15,01,16.30
2013,05,25,15,02,16.30
2013,05,25,15,03,16.40
2013,05,25,15,04,16.40
2013,05,25,15,05,16.40
2013,05,25,15,06,16.60
2013,05,25,15,07,16.70
2013,05,25,15,08,16.70
2013,05,25,15,09,16.70
2013,05,25,15,10,16.80
2013,05,25,15,11,16.90
2013,05,25,15,12,16.90
2013,05,25,15,13,17.00
2013,05,25,15,14,17.00
2013,05,25,15,15,17.00
2013,05,25,15,16,16.90
2013,05,25,15,17,16.90
2013,05,25,15,18,16.90
2013,05,25,15,19,16.90
2013,05,25,15,20,16.90
2013,05,25,15,21,16.90
2013,05,25,15,22,16.90
2013,05,25,15,23,16.90
2013,05,25,15,24,16.80
2013,05,25,15,25,16.70
2013,05,25,15,26,16.60
2013,05,25,15,27,16.30
2013,05,25,15,28,16.10
2013,05,25,15,29,15.70
2013,05,25,15,30,15.40
2013,05,25,15,31,15.20
2013,05,25,15,32,15.00
2013,05,25,15,33,14.90
2013,05,25,15,34,14.80
2013,05,25,15,35,14.60
2013,05,25,15,36,14.40
2013,05,25,15,37,14.30
2013,05,25,15,38,14.20
2013,05,25,15,39,14.00
2013,05,25,15,40,13.90
2013,05,25,15,41,13.80
2013,05,25,15,42,13.80
2013,05,25,15,43,13.80
2013,05,25,15,44,13.80
2013,05,25,15,45,13.80
2013,05,25,15,46,13.80
2013,05,25,15,47,13.80
2013,05,25,15,48,13.90
2013,05,25,15,49,13.90
2013,05,25,15,50,13.90
2013,05,25,15,51,13.90
2013,05,25,15,52,13.90
2013,05,25,15,53,13.90
2013,05,25,15,54,13.90
2013,05,25,15,55,13.90
2013,05,25,15,56,13.90
2013,05,25,15,57,13.80
2013,05,25,15,58,13.80
2013,05,25,15,59,13.80
2013,05,25,16,00,13.80
2013,05,25,16,01,13.70
2013,05,25,16,02,13.70
2013,05,25,16,03,13.70
2013,05,25,16,04,13.60
2013,05,25,16,05,13.60
2013,05,25,16,06,13.60
2013,05,25,16,07,13.50
2013,05,25,16,08,13.50
2013,05,25,16,09,13.40
2013,05,25,16,10,13.30
2013,05,25,16,11,13.30
2013,05,25,16,12,13.30
2013,05,25,16,13,13.30
2013,05,25,16,14,13.30
2013,05,25,16,15,13.20
2013,05,25,16,16,13.20
2013,05,25,16,17,13.20
2013,05,25,16,18,13.20
2013,05,25,16,19,13.20
2013,05,25,16,20,13.20
2013,05,25,16,21,13.30
2013,05,25,16,22,13.30
2013,05,25,16,23,13.20
2013,05,25,16,24,13.20
2013,05,25,16,25,13.20
2013,05,25,16,26,13.10
2013,05,25,16,27,13.10
2013,05,25,16,28,13.10
2013,05,25,16,29,13.00
2013,05,25,16,30,13.00
2013,05,25,16,31,13.00
2013,05,25,16,32,13.00
2013,05,25,16,33,13.00
2013,05,25,16,34,13.00
2013,05,25,16,35,13.00
2013,05,25,16,36,13.00
2013,05,25,16,37,13.00
2013,05,25,16,38,13.00
2013,05,25,16,39,12.90
2013,05,25,16,40,12.90
2013,05,25,16,41,12.90
2013,05,25,16,42,12.90
2013,05,25,16,43,12.90
2013,05,25,16,44,12.90
2013,05,25,16,45,12.80
2013,05,25,16,46,12.80
2013,05,25,16,47,12.80
2013,05,25,16,48,12.80
2013,05,25,16,49,12.80
2013,05,25,16,50,12.80
2013,05,25,16,51,12.70
2013,05,25,16,52,12.60
2013,05,25,16,53,12.60
2013,05,25,16,54,12.50
2013,05,25,16,55,12.50
2013,05,25,16,56,12.40
2013,05,25,16,57,12.40
2013,05,25,16,58,12.30
2013,05,25,16,59,12.30
2013,05,25,17,00,12.30
2013,05,25,17,01,12.30
2013,05,25,17,02,12.30
2013,05,25,17,03,12.30
2013,05,25,17,04,12.30
2013,05,25,17,05,12.30
2013,05,25,17,06,12.30
2013,05,25,17,07,12.30
2013,05,25,17,08,12.30
2013,05,25,17,09,12.30
2013,05,25,17,10,12.30
2013,05,25,17,11,12.10
2013,05,25,17,12,12.00
2013,05,25,17,13,11.90
2013,05,25,17,14,11.80
2013,05,25,17,15,11.80
2013,05,25,17,16,11.80
2013,05,25,17,17,11.70
2013,05,25,17,18,11.60
2013,05,25,17,19,11.60
2013,05,25,17,20,11.60
2013,05,25,17,21,11.60
2013,05,25,17,22,11.40
2013,05,25,17,23,11.40
2013,05,25,17,24,11.40
2013,05,25,17,25,11.40
2013,05,25,17,26,11.40
2013,05,25,17,27,11.40
2013,05,25,17,28,11.40
2013,05,25,17,29,11.40
2013,05,25,17,30,11.40
2013,05,25,17,31,11.40
2013,05,25,17,32,11.40
2013,05,25,17,33,11.40
2013,05,25,17,34,11.40
2013,05,25,17,35,11.40
2013,05,25,17,36,11.40
2013,05,25,17,37,11.40
2013,05,25,17,38,11.40
2013,05,25,17,39,11.40
2013,05,25,17,40,11.40
2013,05,25,17,41,11.40
2013,05,25,17,42,11.40
2013,05,25,17,43,11.40
2013,05,25,17,44,11.40
2013,05,25,17,45,11.60
2013,05,25,17,46,11.60
2013,05,25,17,47,11.60
2013,05,25,17,48,11.60
2013,05,25,17,49,11.60
2013,05,25,17,50,11.60
2013,05,25,17,51,11.60
2013,05,25,17,52,11.60
2013,05,25,17,53,11.60
2013,05,25,17,54,11.60
2013,05,25,17,55,11.60
2013,05,25,17,56,11.60
2013,05,25,17,57,11.70
2013,05,25,17,58,11.70
2013,05,25,17,59,11.70
2013,05,25,18,00,11.70
2013,05,25,18,01,11.70
2013,05,25,18,02,11.70
2013,05,25,18,03,11.80
2013,05,25,18,04,11.80
2013,05,25,18,05,11.90
2013,05,25,18,06,12.00
2013,05,25,18,07,12.10
2013,05,25,18,08,12.10
2013,05,25,18,09,12.20
2013,05,25,18,10,12.30
2013,05,25,18,11,12.30
2013,05,25,18,12,12.30
2013,05,25,18,13,12.30
2013,05,25,18,14,12.30
2013,05,25,18,15,12.30
2013,05,25,18,16,12.40
2013,05,25,18,17,12.40
2013,05,25,18,18,12.50
2013,05,25,18,19,12.60
2013,05,25,18,20,12.70
2013,05,25,18,21,12.70
2013,05,25,18,22,12.80
2013,05,25,18,23,12.80
2013,05,25,18,24,12.80
2013,05,25,18,25,12.80
2013,05,25,18,26,12.90
2013,05,25,18,27,13.00
2013,05,25,18,28,13.10
2013,05,25,18,29,13.20
2013,05,25,18,30,13.30
2013,05,25,18,31,13.30
2013,05,25,18,32,13.40
2013,05,25,18,33,13.50
2013,05,25,18,34,13.60
2013,05,25,18,35,13.60
2013,05,25,18,36,13.50
2013,05,25,18,37,13.40
2013,05,25,18,38,13.30
2013,05,25,18,39,13.30
2013,05,25,18,40,13.20
2013,05,25,18,41,13.20
2013,05,25,18,42,13.10
2013,05,25,18,43,13.10
2013,05,25,18,44,13.00
2013,05,25,18,45,13.00
2013,05,25,18,46,13.00
2013,05,25,18,47,12.90
2013,05,25,18,48,12.80
2013,05,25,18,49,12.80
2013,05,25,18,50,12.80
2013,05,25,18,51,12.70
2013,05,25,18,52,12.70
2013,05,25,18,53,12.70
2013,05,25,18,54,12.70
2013,05,25,18,55,12.70
2013,05,25,18,56,12.70
2013,05,25,18,57,12.70
2013,05,25,18,58,12.80
2013,05,25,18,59,12.80
2013,05,25,19,00,13.00